KD2GO Weather Reports


Display with metric or nautical units.
time (UTC)temp
F
wind
direction
speed
MPH
gust
MPH
rain 1hr
in
rain 24hr
in
rain mn
in
humidity
%
barometer
mb
20260507014502 55 275 1.0 8.0 0.01 0.39 0.39 70 1008.9
20260507013001 57 236 2.0 8.0 0.02 0.39 0.39 68 1008.7
20260507011501 60 6 4.0 9.0 0.07 0.39 0.39 45 1008.5
20260507010002 60 294 4.0 7.0 0.24 0.39 0.39 47 1008.3
20260507004501 60 308 3.0 8.0 0.23 0.38 0.38 51 1008.0
20260507001501 61 297 4.0 13.0 0.17 0.32 0.32 54 1007.8
20260506233001 62 295 0.0 1.0 0.00 0.15 0.15 56 1007.3
20260506231502 62 295 1.0 2.0 0.00 0.15 0.15 56 1007.2
20260506230002 62 296 1.0 4.0 0.00 0.15 0.15 56 1007.3
20260506224500 62 296 2.0 7.0 0.00 0.15 0.15 55 1007.1
20260506223001 62 360 2.0 4.0 0.00 0.15 0.15 49 1007.0
20260506221501 62 310 2.0 5.0 0.00 0.15 0.15 45 1007.2
20260506220001 62 291 2.0 6.0 0.00 0.15 0.15 39 1007.1
20260506214501 61 284 2.0 6.0 0.00 0.15 0.15 34 1006.9
20260506213002 60 278 2.0 5.0 0.00 0.15 0.15 37 1006.7
20260506211502 60 290 2.0 7.0 0.00 0.15 0.15 37 1006.7
20260506210002 60 277 4.0 9.0 0.00 0.15 0.15 37 1006.7
20260506203001 60 329 5.0 12.0 0.00 0.15 0.15 35 1006.5
20260506201501 60 284 3.0 7.0 0.00 0.15 0.15 35 1006.3
20260506200002 59 285 2.0 6.0 0.00 0.15 0.15 35 1006.6
20260506194500 59 338 3.0 8.0 0.00 0.15 0.15 37 1006.8
20260506193000 59 359 3.0 6.0 0.01 0.15 0.15 38 1006.9
20260506191500 59 301 4.0 9.0 0.02 0.15 0.15 40 1007.1
20260506185959 59 225 4.0 9.0 0.02 0.15 0.15 43 1007.2
20260506184500 59 293 4.0 10.0 0.02 0.15 0.15 47 1007.3
20260506183000 59 333 3.0 10.0 0.02 0.14 0.14 50 1007.3
20260506180000 59 321 4.0 10.0 0.02 0.13 0.13 55 1007.4
20260506174500 59 7 4.0 12.0 0.03 0.13 0.13 56 1007.5
20260506173001 59 259 3.0 7.0 0.03 0.12 0.12 56 1007.6
20260506171500 59 301 4.0 11.0 0.03 0.11 0.11 56 1007.8
20260506170000 59 351 2.0 8.0 0.05 0.11 0.11 58 1007.9
20260506162959 60 96 2.0 5.0 0.06 0.09 0.09 66 1007.5
20260506161500 60 111 2.0 6.0 0.06 0.08 0.08 67 1008.2
20260506160000 60 252 2.0 6.0 0.04 0.06 0.06 73 1008.9
20260506154459 60 193 3.0 7.0 0.05 0.05 0.05 77 1009.0
20260506151500 61 340 2.0 9.0 0.02 0.02 0.02 83 1008.8
20260506150001 61 359 2.0 4.0 0.02 0.02 0.02 85 1008.9
20260506144500 62 64 3.0 8.0 0.00 0.00 0.00 84 1008.9
20260506143000 63 269 4.0 9.0 0.00 0.00 0.00 81 1009.1
20260506141501 64 304 5.0 11.0 0.00 0.00 0.00 79 1008.8
20260506140001 63 330 3.0 9.0 0.00 0.00 0.00 81 1008.8
20260506134500 63 300 3.0 10.0 0.00 0.00 0.00 80 1008.9
20260506132959 63 313 3.0 10.0 0.00 0.00 0.00 80 1008.9
20260506131501 63 319 4.0 10.0 0.00 0.00 0.00 80 1009.1
20260506130001 63 323 3.0 10.0 0.00 0.00 0.00 80 1009.2
20260506124500 63 316 3.0 10.0 0.00 0.00 0.00 81 1009.2
20260506122959 63 309 2.0 6.0 0.00 0.00 0.00 81 1008.8
20260506115958 62 97 2.0 5.0 0.00 0.00 0.00 82 1009.0
20260506114459 62 110 2.0 8.0 0.00 0.00 0.00 82 1008.9
20260506112959 62 127 2.0 8.0 0.00 0.00 0.00 82 1009.0
20260506111459 62 158 3.0 6.0 0.00 0.00 0.00 82 1009.0
20260506104458 62 110 2.0 7.0 0.00 0.00 0.00 82 1008.6
20260506102958 62 216 3.0 11.0 0.00 0.00 0.00 83 1008.6
20260506101458 62 314 2.0 6.0 0.00 0.00 0.00 83 1008.5
20260506095958 62 102 2.0 5.0 0.00 0.07 0.00 83 1008.6
20260506094459 62 110 2.0 6.0 0.00 0.07 0.00 83 1008.6
20260506092959 62 128 3.0 8.0 0.00 0.07 0.00 83 1008.6
20260506091458 62 110 2.0 6.0 0.00 0.07 0.00 82 1008.6
20260506084500 62 91 3.0 7.0 0.00 0.07 0.00 81 1008.8
20260506083000 62 110 4.0 6.0 0.00 0.07 0.00 81 1008.7
20260506081459 63 94 3.0 5.0 0.00 0.07 0.00 80 1008.8
20260506071459 64 88 2.0 4.0 0.00 0.07 0.00 74 1009.0
20260506061459 64 60 1.0 6.0 0.00 0.07 0.00 71 1009.5
20260506044457 65 257 2.0 6.0 0.00 0.07 0.00 68 1009.9
20260506042957 65 358 2.0 8.0 0.00 0.07 0.00 67 1010.0
20260506041457 66 355 2.0 7.0 0.00 0.07 0.00 67 1009.9
20260506034459 66 18 2.0 6.0 0.00 0.07 0.07 65 1010.0
20260506032958 67 82 2.0 10.0 0.00 0.07 0.07 64 1009.9
20260506024459 69 360 2.0 5.0 0.00 0.07 0.07 56 1009.8
20260506022959 70 337 3.0 8.0 0.00 0.07 0.07 53 1009.8
20260506021458 70 359 2.0 7.0 0.00 0.07 0.07 53 1009.6